SCP
0 0 0 0 0 0 0 0 0 0 0 0 0 0 0 0 0 -0 -0 0 0 0 0 0 0 0 0 0 0 0 0 -0 -0 -0 -0 -0 -0 0 0 0 -0 -0 -0 -0
0 0 0 0 0 0 0 0 0 0 0 0 0 0 0 0 0 0 0 0 0 -0 -0 -0 -0 -0 0 0 0 0 0 0 0 -0 -0 -0 -0 -0 -0 -0 -0 -0 -0 -0
0 0 0 0 0 0 0 0 0 0 0 0 0 0 0 0 0 0 0 0 0 0 0 -0 -0 -0 -0 -0 -0 -0 -0 0 0 0 0 -0 -0 -0 -0 -0 0 0 0 0
0 0 0 0 0 0 0 0 0 0 0 0 0 0 0 0 0 0 0 0 0 0 0 -0 -0 -0 -0 -0 -0 -0 -0 -0 0 0 0 0 0 -0 0 0 0 0 0 0
0 0 0 0 0 0 0 0 0 0 0 0 0 0 0 0 0 0 0 0 0 -0 -0 -0 -0 0 -0 -0 -0 0 0 0 0 0 -0 -0 -0 0 -0 -0 0 0 0 0
0 0 0 0 0 0 0 0 0 0 0 0 0 0 0 0 0 0 0 0 0 0 0 0 0 0 0 0 0 0 0 0 0 0 0 0 -0 0 -0 -0 -0 -0 0 0
0 0 0 0 0 0 0 0 0 0 0 0 0 0 0 0 0 0 0 0 0 0 0 0 0 0 0 0 0 0 0 0 0 0 0 0 0 0 0 -0 -0 -0 -0 -0
0 0 0 0 0 0 0 0 0 0 0 0 0 0 0 0 0 0 0 0 0 0 0 0 0 0 0 0 0 0 0 0 0 0 0 0 0 0 0 0 -0 0 -0 -0
0 0 0 0 0 0 0 0 0 0 0 0 0 0 0 0 0 0 0 0 0 0 0 0 0 0 0 0 0 0 0 0 0 0 0 0 0 0 0 0 0 0 0 0
0 0 0 0 0 0 0 0 0 0 0 0 0 0 0 0 0 0 0 0 0 0 0 0 0 0 0 0 0 0 0 0 0 0 0 0 0 0 0 0 0 0 0 0
0 0 0 0 0 0 0 0 0 0 0 0 0 0 0 0 0 0 0 0 0 0 0 0 0 0 0 0 0 0 0 0 0 0 0 0 0 0 0 0 0 0 0 0
0 0 0 0 0 0 0 0 0 0 0 0 0 0 0 0 0 0 0 0 0 0 0 0 0 0 0 0 0 0 0 0 0 0 0 0 0 0 0 0 0 0 0 0
0 0 0 0 0 0 0 0 0 0 0 0 0 0 0 0 0 0 0 0 0 0 0 0 0 0 0 0 0 0 0 0 0 0 0 0 0 0 0 0 0 0 0 0
0 0 0 0 0 0 0 0 0 0 0 0 0 0 0 0 0 0 0 0 0 0 0 0 0 0 0 0 0 0 0 0 0 0 0 0 0 0 0 0 0 0 0 0
0 0 0 0 0 0 0 0 0 0 0 0 0 0 0 0 0 0 0 0 0 0 0 0 0 0 0 0 0 0 0 0 0 0 0 0 0 0 0 0 0 0 0 0
0 0 0 0 0 0 0 0 0 0 0 0 0 0 0 0 0 0 0 0 0 0 0 0 0 0 0 0 0 0 0 0 0 0 0 0 0 0 0 0 0 0 0 0
0 0 0 0 0 0 0 0 0 0 0 0 0 0 0 0 0 0 0 0 0 0 0 0 0 0 0 0 0 0 0 0 0 0 0 0 0 0 -0 -0 0 0 0 0
0 0 0 0 0 0 0 0 0 0 0 0 0 0 0 0 0 -0 -0 -0 -0 0 0 0 0 0 0 0 0 0 0 0 0 0 0 0 0 0 0 0 -0 -0 -0 0
0 0 0 0 0 0 0 0 0 0 0 0 0 0 0 0 0 -0 -0 -0 -0 -0 0 0 0 0 0 0 0 0 0 0 0 0 0 0 -0 -0 -0 -0 -0 0 0 0
0 0 0 0 0 0 0 0 0 0 0 0 0 0 0 0 -0 -0 -0 0 0 -0 0 0 0 0 0 0 0 0 0 0 0 0 0 0 0 -0 0 0 0 0 0 0
0 0 0 0 0 0 0 0 0 0 0 0 0 0 0 -0 -0 -0 -0 0 0 0 -0 0 0 0 0 0 0 0 0 0 0 0 0 0 0 0 0 0 0 -0 -0 0
0 0 0 0 0 0 0 0 0 0 0 0 0 0 0 -0 -0 0 -0 -0 0 0 0 0 0 -0 0 0 0 0 0 0 0 0 0 0 0 0 0 0 0 -0 -0 -0
0 0 0 0 0 0 0 0 0 0 0 0 0 0 0 0 0 0 0 0 0 0 -0 0 -0 -0 -0 0 0 0 0 0 0 0 0 0 0 0 0 0 0 0 0 -0
0 0 0 0 0 0 0 0 0 0 0 0 0 0 0 0 0 0 0 0 -0 -0 0 0 0 0 0 0 0 0 0 0 0 0 -0 -0 0 0 0 0 0 0 0 0
0 0 0 0 0 0 0 0 0 0 0 0 0 0 0 0 0 0 0 0 0 0 0 0 0 0 0 0 0 0 0 0 0 0 0 0 0 0 0 0 0 0 0 0
0 0 0 0 0 0 0 0 0 0 0 0 0 0 0 0 0 0 0 0 0 0 0 0 0 0 0 0 0 0 0 0 0 0 0 0 0 0 0 0 0 0 0 -0
0 0 0 0 0 0 0 0 0 0 0 0 0 0 0 0 0 0 0 0 0 0 0 0 0 0 0 0 0 0 0 0 0 0 0 0 0 0 0 0 0 0 0 0
Wind_Speed_500mb
34 39 40 39 38 45 42 39 24 39 41 50 47 23 5 4 3 4 7 11 16 20 25 35 41 44 46 48 54 60 63 65 62 57 61 62 61 57 56 54 55 55 59 58
40 32 26 26 36 45 47 46 48 51 53 21 2 3 5 11 15 18 15 18 21 23 24 27 38 44 46 49 50 53 56 61 66 74 72 64 67 67 65 66 64 59 62 59
43 37 39 32 42 46 49 49 46 44 25 10 2 11 18 19 26 27 23 25 31 33 34 35 49 51 52 53 56 54 55 58 66 70 77 84 76 73 74 75 73 73 70 71
27 16 43 29 15 21 30 24 2 11 8 6 6 20 25 28 36 36 30 27 34 42 47 45 57 60 60 64 63 63 62 65 68 72 78 82 87 89 83 82 83 82 81 78
29 36 45 50 42 40 29 36 16 17 5 9 14 17 35 28 35 38 39 38 46 55 65 69 72 71 73 77 77 78 78 79 78 78 81 82 87 92 97 98 94 92 91 88
9 16 27 17 1 5 4 12 17 5 9 18 15 19 24 39 29 34 44 58 61 61 73 79 78 77 86 93 96 97 93 91 90 88 86 90 89 90 96 103 109 104 102 100
25 28 22 7 10 11 11 8 16 22 32 28 19 33 46 41 37 45 51 61 71 70 79 84 81 85 94 98 100 90 93 100 102 103 106 105 106 101 100 103 112 117 116 111
2 7 19 9 13 12 4 30 34 35 39 37 37 39 38 42 46 51 50 58 62 70 82 84 88 88 97 103 97 92 91 100 103 114 121 123 123 122 116 112 112 117 122 125
16 15 11 12 21 34 49 54 56 47 44 36 38 40 41 42 43 44 48 56 69 76 86 91 92 92 94 105 93 104 116 123 117 113 114 119 121 122 115 120 115 116 113 113
21 38 46 64 67 69 70 58 58 50 44 44 39 35 42 40 44 50 56 65 73 80 87 95 102 106 101 106 104 107 116 121 115 101 99 96 97 93 87 92 95 97 95 96
27 41 52 62 67 72 71 63 51 46 44 39 39 39 39 43 51 55 57 64 68 79 90 101 104 106 102 100 99 103 102 98 92 87 86 85 82 82 80 83 81 84 88 83
28 52 46 60 62 59 48 47 43 43 42 39 38 40 44 49 51 56 60 68 78 85 91 95 91 94 93 87 83 83 86 82 79 81 84 83 83 88 80 78 81 83 89 90
58 80 67 74 71 59 57 53 44 37 37 34 38 41 45 52 54 62 69 72 77 82 82 83 84 88 86 76 71 76 81 83 83 81 81 81 82 82 87 82 68 69 73 77
71 64 58 58 41 46 44 39 35 30 34 34 37 39 43 50 57 63 70 73 74 73 74 77 83 87 78 68 69 73 74 77 80 81 80 81 81 80 80 77 80 75 65 62
67 59 63 53 49 43 34 34 32 30 32 35 37 39 44 53 62 70 70 66 64 66 73 77 78 77 69 69 69 71 73 76 76 78 80 82 84 84 82 80 77 79 75 56
49 43 42 36 35 34 32 31 30 31 33 36 38 43 49 56 62 65 61 55 61 68 70 69 73 75 71 66 65 68 72 72 71 73 76 77 76 74 75 73 71 68 64 54
24 25 32 32 29 30 30 27 26 30 36 38 42 47 53 58 60 59 52 49 54 58 60 65 73 70 66 64 61 60 64 69 66 66 66 68 68 69 69 67 64 58 49 38
30 31 27 25 25 27 26 26 29 33 37 42 47 49 53 53 54 51 46 47 50 52 57 62 64 64 61 54 54 54 55 53 53 53 53 54 56 58 58 59 56 50 47 43
24 24 23 21 23 26 29 31 34 39 41 45 48 49 49 46 44 39 38 41 46 53 57 57 58 57 57 53 47 47 43 44 43 42 42 41 41 37 32 28 27 28 28 26
16 17 18 21 24 28 32 34 41 44 41 45 47 46 44 35 30 28 29 31 36 43 47 50 53 55 56 49 41 40 39 37 38 38 38 37 38 37 34 28 23 20 16 10
14 16 20 25 28 31 36 41 45 46 45 43 43 40 36 26 20 21 23 26 29 33 38 43 48 54 53 49 44 38 37 37 37 38 38 39 39 39 36 33 29 25 21 17
18 21 25 31 36 37 35 39 42 45 43 39 34 31 26 18 15 12 15 22 26 31 36 40 43 47 47 47 48 47 43 40 40 39 40 41 41 42 40 37 35 32 28 25
23 26 28 32 35 37 35 33 33 35 34 30 26 20 17 15 13 13 11 15 20 26 30 33 36 38 39 44 47 49 51 51 48 44 43 42 43 44 43 42 41 40 40 40
21 25 27 28 30 31 31 24 25 24 23 19 16 13 13 11 10 10 11 13 16 21 24 26 29 32 35 38 41 44 47 50 52 51 49 45 44 44 45 44 44 43 43 43
16 17 19 22 22 21 21 19 18 14 13 12 10 9 8 7 6 6 7 11 14 16 18 21 24 27 29 32 34 37 40 42 44 45 47 48 48 47 45 43 42 40 39 38
10 12 15 17 18 18 16 14 13 10 8 5 4 4 4 3 4 5 8 11 14 17 18 20 22 24 26 27 29 30 32 33 34 36 36 37 37 37 37 36 34 33 32 31
10 11 12 12 13 12 11 10 9 6 5 5 3 3 2 3 5 7 9 12 14 16 18 20 22 23 24 25 26 27 27 26 26 26 26 26 25 25 25 24 23 22 20 19
Wind_Direction_500mb
272 269 273 262 263 266 265 271 269 283 283 282 290 316 286 343 289 266 305 329 347 341 340 341 337 334 333 334 332 332 335 339 340 339 336 335 333 332 327 320 319 318 317 317
270 272 259 264 265 263 266 268 264 265 268 294 43 355 283 316 321 282 296 336 339 330 319 317 328 325 323 321 321 320 322 325 327 329 330 333 333 330 326 325 324 316 309 307
269 276 285 267 248 261 266 265 268 272 290 60 12 307 303 301 309 294 287 322 331 330 320 309 318 320 317 313 313 313 313 316 318 319 320 323 327 327 328 327 323 318 314 308
267 267 256 267 277 269 275 289 63 117 129 179 307 307 293 288 289 285 271 300 317 322 318 311 311 312 314 314 308 305 302 304 308 308 309 313 316 318 320 320 321 320 316 310
257 259 278 282 279 270 251 275 167 145 185 259 286 293 295 294 298 286 272 281 302 318 319 314 314 312 312 312 311 307 303 302 302 301 301 301 303 307 310 312 312 312 312 310
227 257 265 300 38 58 117 266 183 182 282 288 272 282 296 311 294 293 287 283 292 306 313 311 311 310 310 310 311 309 308 304 303 300 298 297 297 297 300 303 305 306 304 303
247 261 270 239 143 140 234 288 195 272 277 273 249 267 289 292 291 297 300 290 289 295 305 307 308 312 309 309 307 309 306 304 301 299 299 296 295 293 293 294 296 298 299 298
186 244 269 134 122 222 254 295 293 293 287 283 277 283 284 293 298 299 294 293 294 301 303 303 305 306 306 305 308 305 302 301 300 299 298 296 295 293 291 291 289 289 292 294
215 251 276 225 246 241 289 288 289 293 295 288 282 282 287 292 294 289 292 295 299 301 302 303 305 308 306 305 304 301 299 298 298 297 295 295 293 292 292 289 287 284 285 286
264 256 260 267 268 272 278 280 284 285 290 291 280 286 291 293 292 294 299 303 304 305 306 306 307 306 304 303 302 299 297 296 295 294 293 290 288 287 284 283 283 281 279 278
251 262 273 266 264 267 271 279 280 283 280 280 283 289 292 294 298 302 304 305 306 308 308 307 309 308 307 307 306 303 300 297 296 294 293 291 287 284 280 277 273 272 270 270
250 263 261 269 272 275 277 271 266 270 275 280 286 291 296 300 303 304 306 309 311 313 312 312 311 311 313 314 313 310 306 301 298 296 294 292 290 289 285 278 275 270 267 265
249 259 268 271 272 273 268 265 262 264 272 278 288 292 297 302 305 307 311 315 316 315 316 317 317 315 318 320 317 312 304 301 298 295 293 290 289 287 288 292 282 274 270 266
254 263 267 263 255 264 267 255 257 264 277 282 287 295 301 304 307 313 318 319 318 318 322 323 322 321 321 318 315 313 312 309 303 298 294 291 289 287 287 286 288 289 284 276
263 261 259 262 262 255 247 253 264 274 282 287 292 299 303 309 313 317 320 321 320 325 331 330 322 325 328 323 319 316 314 312 310 305 302 297 294 290 286 285 284 285 294 292
265 262 257 250 246 246 249 254 267 278 283 288 298 306 310 313 315 317 323 326 328 335 334 330 333 335 329 323 320 320 314 309 309 308 306 302 298 291 289 287 287 287 287 288
237 242 244 237 232 241 254 265 273 281 286 294 301 306 310 315 319 321 328 330 336 333 338 344 340 336 332 330 323 320 319 316 319 316 314 312 308 303 302 301 297 300 298 299
246 248 252 247 249 256 262 271 279 284 291 298 303 309 314 318 319 323 328 335 335 341 355 350 344 344 338 336 336 324 318 322 326 327 328 326 320 313 305 302 307 305 307 298
251 252 254 257 263 271 278 282 286 290 297 302 305 309 312 316 316 320 329 337 338 348 358 353 351 351 351 351 340 335 337 338 340 343 344 342 338 337 332 323 314 307 305 301
245 253 260 267 274 280 285 290 293 295 300 299 300 303 305 310 309 318 328 336 346 350 354 354 357 2 0 356 355 356 355 356 356 358 360 2 3 3 3 1 356 351 349 343
259 273 283 288 290 293 295 295 295 297 297 296 297 299 301 303 304 316 323 337 352 357 0 2 4 10 7 8 13 15 15 16 17 17 18 19 21 25 27 27 27 30 38 54
284 291 296 297 296 298 298 297 296 295 296 297 293 290 288 288 293 306 315 339 353 360 7 5 10 14 11 18 26 31 34 35 35 37 37 36 35 36 37 37 41 48 58 72
298 302 307 308 306 306 306 304 298 297 296 292 285 276 273 279 286 307 328 344 356 2 8 6 10 13 15 24 32 36 39 42 46 49 50 50 48 46 46 47 54 63 75 85
308 307 308 308 310 312 312 309 300 297 291 285 274 265 266 264 262 295 323 348 358 1 0 3 8 14 19 26 30 35 40 43 47 50 54 59 64 66 65 64 67 71 79 86
316 323 325 322 319 316 312 312 311 304 299 291 268 256 252 262 268 293 335 349 355 355 360 3 8 14 19 25 30 34 37 40 43 47 51 56 61 65 70 74 79 81 83 85
345 344 340 336 334 330 328 325 322 319 321 308 267 256 251 261 290 321 337 343 348 355 357 2 8 12 16 20 24 29 32 35 38 42 45 50 54 59 63 67 71 75 79 83
14 7 5 359 354 351 344 337 334 334 329 348 286 301 300 314 322 332 338 342 346 349 353 359 4 8 10 12 15 18 21 24 27 29 32 35 39 44 49 52 56 60 64 68
Wind_Speed_850mb
34 39 40 39 38 45 42 39 24 39 41 50 47 23 5 4 3 4 7 11 16 20 25 35 41 44 46 48 54 60 63 65 62 57 61 62 61 57 56 54 55 55 59 58
40 32 26 26 36 45 47 46 48 51 53 21 2 3 5 11 15 18 15 18 21 23 24 27 38 44 46 49 50 53 56 61 66 74 72 64 67 67 65 66 64 59 62 59
43 37 39 32 42 46 49 49 46 44 25 10 2 11 18 19 26 27 23 25 31 33 34 35 49 51 52 53 56 54 55 58 66 70 77 84 76 73 74 75 73 73 70 71
27 16 43 29 15 21 30 24 2 11 8 6 6 20 25 28 36 36 30 27 34 42 47 45 57 60 60 64 63 63 62 65 68 72 78 82 87 89 83 82 83 82 81 78
29 36 45 50 42 40 29 36 16 17 5 9 14 17 35 28 35 38 39 38 46 55 65 69 72 71 73 77 77 78 78 79 78 78 81 82 87 92 97 98 94 92 91 88
9 16 27 17 1 5 4 12 17 5 9 18 15 19 24 39 29 34 44 58 61 61 73 79 78 77 86 93 96 97 93 91 90 88 86 90 89 90 96 103 109 104 102 100
25 28 22 7 10 11 11 8 16 22 32 28 19 33 46 41 37 45 51 61 71 70 79 84 81 85 94 98 100 90 93 100 102 103 106 105 106 101 100 103 112 117 116 111
2 7 19 9 13 12 4 30 34 35 39 37 37 39 38 42 46 51 50 58 62 70 82 84 88 88 97 103 97 92 91 100 103 114 121 123 123 122 116 112 112 117 122 125
16 15 11 12 21 34 49 54 56 47 44 36 38 40 41 42 43 44 48 56 69 76 86 91 92 92 94 105 93 104 116 123 117 113 114 119 121 122 115 120 115 116 113 113
21 38 46 64 67 69 70 58 58 50 44 44 39 35 42 40 44 50 56 65 73 80 87 95 102 106 101 106 104 107 116 121 115 101 99 96 97 93 87 92 95 97 95 96
27 41 52 62 67 72 71 63 51 46 44 39 39 39 39 43 51 55 57 64 68 79 90 101 104 106 102 100 99 103 102 98 92 87 86 85 82 82 80 83 81 84 88 83
28 52 46 60 62 59 48 47 43 43 42 39 38 40 44 49 51 56 60 68 78 85 91 95 91 94 93 87 83 83 86 82 79 81 84 83 83 88 80 78 81 83 89 90
58 80 67 74 71 59 57 53 44 37 37 34 38 41 45 52 54 62 69 72 77 82 82 83 84 88 86 76 71 76 81 83 83 81 81 81 82 82 87 82 68 69 73 77
71 64 58 58 41 46 44 39 35 30 34 34 37 39 43 50 57 63 70 73 74 73 74 77 83 87 78 68 69 73 74 77 80 81 80 81 81 80 80 77 80 75 65 62
67 59 63 53 49 43 34 34 32 30 32 35 37 39 44 53 62 70 70 66 64 66 73 77 78 77 69 69 69 71 73 76 76 78 80 82 84 84 82 80 77 79 75 56
49 43 42 36 35 34 32 31 30 31 33 36 38 43 49 56 62 65 61 55 61 68 70 69 73 75 71 66 65 68 72 72 71 73 76 77 76 74 75 73 71 68 64 54
24 25 32 32 29 30 30 27 26 30 36 38 42 47 53 58 60 59 52 49 54 58 60 65 73 70 66 64 61 60 64 69 66 66 66 68 68 69 69 67 64 58 49 38
30 31 27 25 25 27 26 26 29 33 37 42 47 49 53 53 54 51 46 47 50 52 57 62 64 64 61 54 54 54 55 53 53 53 53 54 56 58 58 59 56 50 47 43
24 24 23 21 23 26 29 31 34 39 41 45 48 49 49 46 44 39 38 41 46 53 57 57 58 57 57 53 47 47 43 44 43 42 42 41 41 37 32 28 27 28 28 26
16 17 18 21 24 28 32 34 41 44 41 45 47 46 44 35 30 28 29 31 36 43 47 50 53 55 56 49 41 40 39 37 38 38 38 37 38 37 34 28 23 20 16 10
14 16 20 25 28 31 36 41 45 46 45 43 43 40 36 26 20 21 23 26 29 33 38 43 48 54 53 49 44 38 37 37 37 38 38 39 39 39 36 33 29 25 21 17
18 21 25 31 36 37 35 39 42 45 43 39 34 31 26 18 15 12 15 22 26 31 36 40 43 47 47 47 48 47 43 40 40 39 40 41 41 42 40 37 35 32 28 25
23 26 28 32 35 37 35 33 33 35 34 30 26 20 17 15 13 13 11 15 20 26 30 33 36 38 39 44 47 49 51 51 48 44 43 42 43 44 43 42 41 40 40 40
21 25 27 28 30 31 31 24 25 24 23 19 16 13 13 11 10 10 11 13 16 21 24 26 29 32 35 38 41 44 47 50 52 51 49 45 44 44 45 44 44 43 43 43
16 17 19 22 22 21 21 19 18 14 13 12 10 9 8 7 6 6 7 11 14 16 18 21 24 27 29 32 34 37 40 42 44 45 47 48 48 47 45 43 42 40 39 38
10 12 15 17 18 18 16 14 13 10 8 5 4 4 4 3 4 5 8 11 14 17 18 20 22 24 26 27 29 30 32 33 34 36 36 37 37 37 37 36 34 33 32 31
10 11 12 12 13 12 11 10 9 6 5 5 3 3 2 3 5 7 9 12 14 16 18 20 22 23 24 25 26 27 27 26 26 26 26 26 25 25 25 24 23 22 20 19
Wind_Direction_850mb
272 269 273 262 263 266 265 271 269 283 283 282 290 316 286 343 289 266 305 329 347 341 340 341 337 334 333 334 332 332 335 339 340 339 336 335 333 332 327 320 319 318 317 317
270 272 259 264 265 263 266 268 264 265 268 294 43 355 283 316 321 282 296 336 339 330 319 317 328 325 323 321 321 320 322 325 327 329 330 333 333 330 326 325 324 316 309 307
269 276 285 267 248 261 266 265 268 272 290 60 12 307 303 301 309 294 287 322 331 330 320 309 318 320 317 313 313 313 313 316 318 319 320 323 327 327 328 327 323 318 314 308
267 267 256 267 277 269 275 289 63 117 129 179 307 307 293 288 289 285 271 300 317 322 318 311 311 312 314 314 308 305 302 304 308 308 309 313 316 318 320 320 321 320 316 310
257 259 278 282 279 270 251 275 167 145 185 259 286 293 295 294 298 286 272 281 302 318 319 314 314 312 312 312 311 307 303 302 302 301 301 301 303 307 310 312 312 312 312 310
227 257 265 300 38 58 117 266 183 182 282 288 272 282 296 311 294 293 287 283 292 306 313 311 311 310 310 310 311 309 308 304 303 300 298 297 297 297 300 303 305 306 304 303
247 261 270 239 143 140 234 288 195 272 277 273 249 267 289 292 291 297 300 290 289 295 305 307 308 312 309 309 307 309 306 304 301 299 299 296 295 293 293 294 296 298 299 298
186 244 269 134 122 222 254 295 293 293 287 283 277 283 284 293 298 299 294 293 294 301 303 303 305 306 306 305 308 305 302 301 300 299 298 296 295 293 291 291 289 289 292 294
215 251 276 225 246 241 289 288 289 293 295 288 282 282 287 292 294 289 292 295 299 301 302 303 305 308 306 305 304 301 299 298 298 297 295 295 293 292 292 289 287 284 285 286
264 256 260 267 268 272 278 280 284 285 290 291 280 286 291 293 292 294 299 303 304 305 306 306 307 306 304 303 302 299 297 296 295 294 293 290 288 287 284 283 283 281 279 278
251 262 273 266 264 267 271 279 280 283 280 280 283 289 292 294 298 302 304 305 306 308 308 307 309 308 307 307 306 303 300 297 296 294 293 291 287 284 280 277 273 272 270 270
250 263 261 269 272 275 277 271 266 270 275 280 286 291 296 300 303 304 306 309 311 313 312 312 311 311 313 314 313 310 306 301 298 296 294 292 290 289 285 278 275 270 267 265
249 259 268 271 272 273 268 265 262 264 272 278 288 292 297 302 305 307 311 315 316 315 316 317 317 315 318 320 317 312 304 301 298 295 293 290 289 287 288 292 282 274 270 266
254 263 267 263 255 264 267 255 257 264 277 282 287 295 301 304 307 313 318 319 318 318 322 323 322 321 321 318 315 313 312 309 303 298 294 291 289 287 287 286 288 289 284 276
263 261 259 262 262 255 247 253 264 274 282 287 292 299 303 309 313 317 320 321 320 325 331 330 322 325 328 323 319 316 314 312 310 305 302 297 294 290 286 285 284 285 294 292
265 262 257 250 246 246 249 254 267 278 283 288 298 306 310 313 315 317 323 326 328 335 334 330 333 335 329 323 320 320 314 309 309 308 306 302 298 291 289 287 287 287 287 288
237 242 244 237 232 241 254 265 273 281 286 294 301 306 310 315 319 321 328 330 336 333 338 344 340 336 332 330 323 320 319 316 319 316 314 312 308 303 302 301 297 300 298 299
246 248 252 247 249 256 262 271 279 284 291 298 303 309 314 318 319 323 328 335 335 341 355 350 344 344 338 336 336 324 318 322 326 327 328 326 320 313 305 302 307 305 307 298
251 252 254 257 263 271 278 282 286 290 297 302 305 309 312 316 316 320 329 337 338 348 358 353 351 351 351 351 340 335 337 338 340 343 344 342 338 337 332 323 314 307 305 301
245 253 260 267 274 280 285 290 293 295 300 299 300 303 305 310 309 318 328 336 346 350 354 354 357 2 0 356 355 356 355 356 356 358 360 2 3 3 3 1 356 351 349 343
259 273 283 288 290 293 295 295 295 297 297 296 297 299 301 303 304 316 323 337 352 357 0 2 4 10 7 8 13 15 15 16 17 17 18 19 21 25 27 27 27 30 38 54
284 291 296 297 296 298 298 297 296 295 296 297 293 290 288 288 293 306 315 339 353 360 7 5 10 14 11 18 26 31 34 35 35 37 37 36 35 36 37 37 41 48 58 72
298 302 307 308 306 306 306 304 298 297 296 292 285 276 273 279 286 307 328 344 356 2 8 6 10 13 15 24 32 36 39 42 46 49 50 50 48 46 46 47 54 63 75 85
308 307 308 308 310 312 312 309 300 297 291 285 274 265 266 264 262 295 323 348 358 1 0 3 8 14 19 26 30 35 40 43 47 50 54 59 64 66 65 64 67 71 79 86
316 323 325 322 319 316 312 312 311 304 299 291 268 256 252 262 268 293 335 349 355 355 360 3 8 14 19 25 30 34 37 40 43 47 51 56 61 65 70 74 79 81 83 85
345 344 340 336 334 330 328 325 322 319 321 308 267 256 251 261 290 321 337 343 348 355 357 2 8 12 16 20 24 29 32 35 38 42 45 50 54 59 63 67 71 75 79 83
14 7 5 359 354 351 344 337 334 334 329 348 286 301 300 314 322 332 338 342 346 349 353 359 4 8 10 12 15 18 21 24 27 29 32 35 39 44 49 52 56 60 64 68